Home   Weather   Helena   Past weeks

Flag for USA Past Weather in Helena, Montana, USA — Yesterday and Last 2 Weeks

Now
85 °F

Sunny.


Feels Like: 82 °F
Forecast: 57 / 90 °F
Wind: 16 mph from Northwest

Location: Helena Regional Airport

Current Time: Aug 17, 2017 at 7:11:02 pm

Latest Report: Aug 17, 2017 at 5:53 pm


Visibility: 10 mi

Pressure: 29.96 "Hg (26.05 "Hg at 1239m altitude)

Humidity: 17%

Dew Point: 35 °F

Location of HelenaLocation

Past Weather in Helena — Graph

°F

Helena Temperature Yesterday

Maximum temperature yesterday: 87 °F (at 3:53 pm)
Minimum temperature yesterday: 53 °F (at 6:53 am)
Average temperature yesterday: 70 °F

High & Low Weather Summary for the Past Weeks

 TemperatureHumidityPressure
High89 °F (Aug 12, 3:53 pm)80% (Aug 3, 5:53 am)30.31 "Hg (Aug 3, 5:53 am)
Low48 °F (Aug 10, 6:53 am)8% (Aug 7, 5:53 pm)29.73 "Hg (Aug 13, 1:53 pm)
Average69 °F41%30.02 "Hg
* Reported Aug 2 5:53 pm — Aug 17 5:53 pm, Helena. Weather by CustomWeather, © 2017

Note: Actual official high and low records may vary slightly from our data, if they occured in-between our weather recording intervals... More about our weather records

Advertising

Helena Weather History for the Previous 24 Hours

Scroll right to see more
 ConditionsComfort  
Time TempWeatherWind HumidityBarometerVisibility
5:53 pm
Thu, Aug 17
85 °FSunny.16 mph17%29.96 "Hg10 mi
4:53 pm86 °FSunny.12 mph16%29.96 "Hg10 mi
3:53 pm86 °FSunny.16 mph17%29.95 "Hg10 mi
2:53 pm82 °FScattered clouds.No wind19%29.98 "Hg10 mi
1:53 pm81 °FScattered clouds.12 mph21%29.98 "Hg10 mi
12:53 pm82 °FSunny.7 mph22%30.00 "Hg10 mi
11:53 am79 °FSunny.12 mph24%30.00 "Hg10 mi
10:53 am77 °FSunny.14 mph24%30.00 "Hg10 mi
9:53 am73 °FSunny.14 mph28%30.02 "Hg8 mi
8:53 am71 °FSunny.9 mph31%30.03 "Hg7 mi
7:53 am65 °FSunny.10 mph39%30.02 "Hg7 mi
6:53 am58 °FSunny.5 mph50%30.02 "Hg7 mi
5:53 am60 °FClear.No wind44%29.98 "Hg8 mi
4:53 am62 °FClear.3 mph39%29.96 "Hg9 mi
3:53 am70 °FClear.3 mph29%29.93 "Hg10 mi
2:53 am71 °FOvercast.8 mph27%29.94 "Hg10 mi
1:53 am71 °FPassing clouds.12 mph26%29.93 "Hg10 mi
12:53 am65 °FClear.No wind31%29.95 "Hg5 mi
11:53 pm
Wed, Aug 16
67 °FClear.8 mph29%29.93 "Hg6 mi
10:53 pm69 °FPassing clouds.10 mph25%29.93 "Hg5 mi
9:53 pm73 °FPassing clouds.9 mph21%29.92 "Hg5 mi
8:53 pm74 °FPassing clouds.10 mph21%29.90 "Hg5 mi
7:53 pm79 °FPartly sunny.13 mph17%29.91 "Hg6 mi
Weather by CustomWeather, © 2017

See weather overviewHow to use our weather pages